Dewpoint
29 23 24 22 20 18 18 20 19 18 16 15 20 20 16 15 14 14 14 14 18 16 16 15 16 15 16 16 17 17 17 17 16 16 16 17 17 17 16 17 17 16 17 23 25 26 26 28 27 28 29 29 29 27 26 26 25 25 25 26 27 27 27 27 28 28 28 28 29 29 28 28 29 28 29 30 29 29 29 30 30 31 30 30 29 29
26 22 24 22 20 18 17 19 20 19 19 18 19 19 16 19 14 15 14 15 17 16 16 16 16 16 16 16 16 16 16 15 15 15 16 16 16 17 18 18 18 17 21 25 25 27 29 27 30 29 29 31 28 27 25 25 25 24 25 25 26 26 26 27 27 28 28 28 28 27 27 27 28 28 28 28 28 29 30 30 30 30 30 30 29 29
24 22 22 23 22 19 20 21 20 20 20 21 19 19 19 18 20 18 19 19 19 19 16 17 16 16 16 16 16 16 16 15 15 15 15 15 16 17 18 18 17 18 19 19 19 23 26 30 30 30 30 30 28 27 26 25 25 24 25 25 26 26 26 27 27 27 27 27 28 27 27 27 27 28 28 27 28 30 30 30 29 30 30 30 29 29
23 26 24 23 23 22 21 21 21 23 23 21 21 20 19 19 18 14 18 18 18 17 15 17 15 14 14 15 15 16 16 16 18 18 19 19 17 17 16 17 18 18 20 19 18 18 24 28 29 29 29 29 29 28 26 25 24 24 25 24 25 25 26 26 27 28 26 27 27 27 27 27 27 27 29 28 28 29 30 29 29 29 29 29 28 29
17 22 26 25 25 22 21 20 21 20 18 23 22 21 19 20 18 17 14 17 18 17 18 15 16 15 15 15 15 15 17 17 16 17 17 19 24 22 25 25 24 20 19 20 20 19 25 28 29 28 29 29 28 28 26 25 24 23 24 24 25 25 25 26 28 28 27 28 27 27 27 27 26 27 26 26 27 28 29 29 29 28 29 29 28 28
20 19 27 25 26 24 24 21 23 24 19 18 24 21 19 18 16 16 17 17 16 16 21 20 14 11 14 15 15 16 16 17 17 17 17 18 19 21 21 21 23 26 26 24 23 22 24 27 29 28 29 28 28 27 27 26 25 23 24 24 24 25 26 26 27 27 27 27 25 25 25 24 24 24 25 25 25 26 28 28 28 28 29 28 28 28
20 23 24 24 26 27 26 23 25 24 18 16 17 22 19 18 19 19 18 18 17 16 18 21 14 12 15 15 18 18 18 18 18 19 19 19 19 20 22 23 22 22 22 23 24 25 26 28 28 27 28 28 27 27 28 26 25 24 24 24 24 24 25 27 27 26 27 25 25 24 23 23 23 23 24 24 25 26 27 28 27 27 28 28 27 27
20 19 21 24 23 26 26 24 26 23 21 17 21 24 22 19 20 21 21 21 18 23 25 23 19 16 17 17 17 17 17 17 17 17 17 17 18 19 19 20 19 21 21 23 24 25 26 27 27 26 27 27 27 27 27 26 25 24 23 24 24 24 26 26 27 26 26 24 24 24 23 24 23 22 22 24 24 26 26 26 26 27 28 27 27 27
17 19 22 22 23 24 22 22 24 25 21 20 24 25 23 21 22 24 23 24 24 19 20 21 22 18 17 16 18 17 16 15 15 15 15 15 16 16 17 18 18 18 19 21 25 26 26 27 27 26 26 27 26 27 26 25 25 25 24 24 24 24 25 26 26 25 25 25 24 23 23 23 23 22 23 24 26 26 27 25 26 26 27 27 27 26
20 22 25 22 23 20 23 22 25 26 22 24 28 29 28 27 25 23 20 19 20 17 17 20 20 15 13 13 15 15 16 15 14 15 14 13 12 12 13 15 16 16 18 24 26 26 26 27 27 27 26 25 26 27 28 26 26 25 25 24 24 24 24 25 25 25 25 24 25 23 23 22 23 23 23 23 23 25 26 25 25 25 26 26 26 26
21 27 29 24 23 21 21 23 27 26 22 29 26 24 26 25 24 24 22 20 19 17 18 21 18 16 11 15 13 15 17 13 14 13 13 12 14 13 13 14 17 18 19 23 28 27 26 26 26 24 24 25 25 26 26 26 25 25 25 23 23 23 24 25 25 25 24 24 24 22 22 22 21 22 22 22 22 23 25 24 24 25 25 26 25 25
22 25 22 27 30 27 24 24 27 28 29 26 24 22 21 21 19 20 17 18 12 14 18 21 18 16 12 11 15 12 13 13 12 12 12 12 12 14 14 15 16 16 19 25 29 26 25 25 24 23 23 23 23 24 25 25 25 25 25 24 23 23 23 24 25 25 24 24 24 23 22 21 21 20 22 20 20 22 23 23 24 24 25 25 25 25
18 20 21 26 33 24 25 23 24 25 25 26 23 21 15 16 16 9 11 9 11 13 15 20 19 15 13 10 12 14 14 14 14 12 12 11 11 13 14 16 18 21 22 28 29 27 26 25 24 23 22 23 23 23 24 25 25 25 24 23 23 22 23 23 24 24 23 23 23 23 22 21 21 20 20 20 20 21 22 22 23 23 23 24 24 24
20 24 22 23 25 29 26 19 22 19 22 25 22 22 18 13 10 8 6 6 11 16 19 16 19 13 12 12 13 12 12 13 14 14 16 14 13 14 15 18 19 21 25 29 30 28 26 26 25 24 22 22 23 22 23 24 24 24 25 23 23 22 22 22 23 23 23 23 23 22 22 21 21 20 20 20 19 21 21 22 22 22 23 23 23 23
15 18 21 21 18 27 24 19 19 18 21 23 24 22 21 18 9 4 9 9 11 13 15 18 14 16 9 13 19 14 13 16 17 16 18 20 20 19 19 20 19 20 28 30 29 28 27 26 25 25 24 22 23 23 23 23 24 24 24 23 23 22 22 21 22 23 23 23 23 22 22 21 20 20 20 19 21 20 21 21 21 22 22 22 22 23
19 18 19 23 25 27 25 25 22 24 23 24 25 24 18 20 18 12 17 14 11 9 13 12 16 17 13 15 17 21 17 16 16 16 19 18 17 18 18 18 18 21 29 30 29 28 27 26 25 26 25 23 23 22 23 22 23 23 23 23 23 22 21 21 21 22 22 22 22 22 21 21 20 21 20 21 21 20 21 20 20 21 21 21 22 22
23 18 26 27 27 24 24 26 23 24 16 22 23 22 21 23 20 19 20 19 16 11 12 13 13 15 16 11 12 16 11 10 11 12 12 12 15 19 21 21 19 21 28 29 29 28 27 25 25 26 25 24 23 23 22 22 22 22 23 23 22 22 22 21 21 21 21 22 22 22 21 21 20 20 19 19 19 19 20 20 20 20 20 21 21 22
19 17 26 25 23 25 25 27 26 26 23 21 19 22 24 27 25 18 16 17 14 13 13 13 12 9 11 13 19 13 13 10 11 12 12 14 15 14 18 20 21 23 27 28 28 28 27 25 25 25 25 24 23 22 22 22 22 22 22 22 21 21 21 21 20 20 20 21 21 21 21 21 20 19 19 19 18 18 19 19 19 19 20 20 21 22
27 18 19 22 27 29 28 26 25 26 26 20 23 28 20 16 16 19 18 13 13 13 16 12 10 10 12 11 12 12 11 11 11 13 12 11 12 14 15 16 22 28 28 27 27 27 27 26 25 24 24 24 24 23 22 23 23 23 22 21 21 20 20 20 21 20 20 20 22 22 21 20 20 19 19 19 19 18 18 18 19 19 19 19 20 21
26 21 20 28 26 27 25 25 22 22 26 27 26 22 26 21 21 18 20 20 17 14 15 15 13 14 18 17 13 13 14 15 12 13 13 14 14 15 15 20 25 28 28 28 27 27 27 27 26 24 24 23 23 23 23 22 22 22 22 21 21 20 20 19 19 19 19 19 19 21 20 20 20 20 19 19 18 18 18 18 19 19 18 18 20 20
26 25 20 22 29 26 19 23 23 23 22 22 22 21 22 22 24 21 21 19 16 15 14 14 14 16 16 14 14 12 11 12 13 15 19 19 18 19 18 21 24 27 28 28 28 27 27 26 26 25 24 24 23 23 23 22 22 22 22 21 21 20 19 18 18 18 18 19 18 19 19 18 18 18 18 18 18 17 17 18 19 18 18 18 18 19
27 29 24 27 26 23 22 25 25 26 25 24 23 21 21 21 20 18 18 23 20 17 16 15 15 19 19 15 12 11 12 14 16 18 19 18 19 19 19 21 25 28 28 28 28 27 27 26 26 26 25 24 22 21 21 22 22 22 22 22 21 20 19 18 17 17 18 18 18 18 18 18 17 17 17 17 17 17 17 17 18 18 18 17 18 18
33 31 29 27 27 28 29 30 29 26 27 25 24 23 25 22 21 20 17 20 21 20 19 21 18 20 20 20 17 15 14 13 15 18 17 19 19 18 21 22 24 26 29 29 28 27 27 27 27 26 25 24 22 22 21 21 22 22 21 21 21 21 19 19 18 17 17 18 18 18 18 18 17 17 17 17 17 17 16 17 17 18 17 16 17 18
35 28 28 28 33 34 34 33 32 29 27 24 24 25 24 22 22 21 21 20 21 19 19 19 19 20 23 21 20 20 20 19 17 17 19 18 20 22 21 21 21 22 23 26 28 29 28 26 25 25 25 25 24 23 21 21 21 22 22 22 22 21 20 19 18 17 17 17 18 18 18 17 17 16 17 17 16 16 16 16 16 18 16 16 16 16
29 29 29 26 27 28 31 33 31 27 26 24 22 23 24 24 24 25 25 23 20 22 21 19 16 19 23 22 22 21 21 19 18 17 19 19 20 22 21 21 21 21 22 23 24 25 27 27 25 25 26 25 25 24 23 22 21 21 22 22 22 21 20 19 18 17 17 17 17 17 18 17 17 16 16 17 16 16 16 15 16 16 15 15 15 16
31 31 30 26 23 21 21 21 23 24 25 23 25 25 25 25 24 21 20 21 19 20 21 19 18 19 20 21 21 20 20 20 20 20 19 21 20 21 21 23 22 22 22 21 21 22 24 27 28 27 25 26 26 25 25 23 22 21 21 21 21 21 21 20 19 18 17 17 17 17 17 17 17 16 16 17 17 16 16 15 15 16 15 14 14 15
31 32 33 31 28 26 26 28 31 30 28 26 27 26 26 25 25 24 23 21 20 21 21 20 20 20 20 20 20 20 20 19 19 19 20 20 21 22 22 23 23 23 22 21 22 23 24 26 27 28 27 26 25 25 25 24 23 21 21 21 21 21 21 21 20 19 17 17 17 17 17 17 17 17 16 17 16 16 15 15 15 16 15 15 15 14
28 30 32 32 31 31 31 31 31 31 30 30 30 29 28 27 26 25 22 20 22 22 19 22 23 23 22 22 22 21 21 21 21 21 21 20 21 23 23 22 28 23 23 23 23 24 24 24 25 26 27 26 26 25 25 25 24 22 21 21 21 21 21 22 20 19 18 17 17 17 17 17 17 17 16 16 16 16 16 15 16 16 15 15 15 15
28 29 31 32 31 32 32 32 32 31 31 30 30 29 28 28 28 27 27 26 26 23 21 23 24 23 22 22 22 22 22 21 21 21 22 22 22 23 23 23 23 23 23 23 23 23 24 24 25 25 25 26 26 25 24 25 24 23 22 21 21 21 21 21 21 20 19 18 18 17 17 18 18 17 18 18 17 17 17 17 16 17 16 16 15 15
27 28 30 30 30 31 31 32 32 31 31 30 29 29 29 29 28 28 28 28 28 27 26 26 25 25 25 24 24 24 24 24 23 23 24 23 23 24 24 24 24 24 24 24 24 23 23 24 24 24 24 24 25 25 25 24 24 24 23 22 21 21 21 21 21 20 20 19 18 18 18 18 18 18 18 18 18 18 17 17 17 18 18 17 16 16
33 30 33 32 30 29 30 31 31 31 30 29 30 29 29 29 29 29 29 29 29 28 28 28 27 27 28 27 27 27 27 27 26 25 24 25 25 25 25 25 25 25 25 25 25 24 24 24 24 25 25 25 25 25 25 25 24 24 23 22 22 21 21 21 21 21 20 20 20 19 19 19 19 19 19 19 19 20 19 19 19 19 18 17 17 17
32 31 33 32 29 29 31 30 30 29 29 28 28 29 29 28 28 28 28 29 29 28 28 28 27 27 28 29 29 29 29 28 27 27 26 26 26 26 27 28 29 30 30 30 29 28 27 26 26 25 25 25 25 25 25 25 25 23 22 22 22 22 22 22 22 22 21 21 20 20 20 20 20 20 20 20 21 20 20 19 19 19 18 18 17 17
32 31 30 30 28 26 31 31 30 29 28 26 27 28 29 28 28 29 29 30 30 29 27 26 27 28 29 31 29 29 28 28 27 27 27 28 29 30 31 31 31 31 31 31 30 29 28 28 27 27 26 26 26 27 26 26 24 22 22 23 23 22 22 22 23 22 22 22 22 21 20 20 21 21 21 21 20 20 20 19 19 18 18 17 17 16
32 32 30 32 25 25 29 30 31 27 20 21 33 33 32 29 29 28 28 29 29 30 30 32 31 31 30 30 30 29 30 30 31 29 30 30 30 30 29 29 30 30 31 31 31 30 29 29 28 27 27 27 26 26 26 26 25 23 23 22 21 22 23 23 23 23 23 23 23 22 21 21 22 21 21 21 20 19 19 18 18 18 18 17 16 16
29 29 27 29 26 24 26 28 24 18 20 28 35 34 33 31 31 31 30 30 29 27 29 29 29 29 28 28 29 26 25 27 30 30 31 30 30 29 27 27 28 28 30 30 30 30 30 29 28 27 26 27 27 27 27 27 25 23 23 21 22 23 23 23 23 24 24 23 23 22 22 22 21 21 21 21 20 20 19 18 18 18 18 17 16 16
29 28 28 28 28 28 26 25 15 15 29 31 34 30 28 28 28 28 29 29 22 24 26 25 25 26 26 26 28 24 23 24 29 31 29 27 28 29 27 26 27 27 28 29 30 30 30 29 28 26 26 27 27 27 27 26 26 23 23 21 22 23 24 24 24 24 23 23 24 23 22 22 22 21 21 20 20 19 19 19 19 18 17 16 16 16
32 31 29 26 29 22 22 21 20 23 24 26 25 24 26 22 22 23 21 25 21 24 26 25 24 24 25 26 28 25 23 24 27 28 25 25 28 29 29 28 27 27 28 29 30 30 31 30 28 27 26 25 24 23 23 24 25 24 23 21 21 21 22 23 23 24 23 23 23 23 22 22 22 21 20 20 20 19 19 19 18 18 16 16 15 15
32 29 30 25 24 28 22 21 22 21 18 19 20 25 26 23 23 25 27 25 22 24 27 25 24 24 25 24 25 25 24 20 19 20 22 25 29 31 30 29 27 27 27 28 30 30 31 31 29 28 27 25 24 21 19 22 23 22 22 22 21 21 21 22 23 23 23 23 24 22 21 22 22 22 20 20 19 19 19 18 18 17 16 15 14 14
20 28 28 25 22 23 20 18 17 16 19 20 22 23 25 22 23 27 26 22 22 24 27 26 25 24 26 23 27 22 22 18 18 19 22 28 31 31 29 27 27 27 27 28 30 30 31 31 30 29 28 26 25 21 21 23 24 24 24 22 21 20 20 21 22 22 23 23 22 21 21 22 22 22 20 19 19 18 18 18 17 16 15 14 14 13
15 14 17 14 13 15 14 13 12 15 17 20 21 23 24 17 23 28 19 18 22 25 28 26 26 24 25 25 24 22 21 18 18 21 28 32 32 30 27 27 27 26 27 28 29 31 32 32 30 29 29 28 26 22 21 23 23 24 22 22 20 20 22 22 23 22 21 20 21 20 20 22 22 22 20 20 19 19 18 16 14 13 13 12 11 11
10 9 14 12 11 15 16 13 13 13 24 21 21 25 16 19 23 17 13 17 25 26 28 26 24 25 25 24 22 21 22 26 27 29 31 32 29 26 26 27 26 27 27 28 29 32 31 31 30 29 29 29 27 25 23 23 24 23 21 20 20 21 22 21 20 20 20 20 19 19 19 20 21 20 19 18 17 17 15 14 13 12 11 10 10 10
12 13 15 15 12 10 9 10 10 13 25 20 22 19 19 15 6 6 20 28 26 27 26 26 23 25 23 25 22 23 23 26 28 28 29 27 25 24 24 25 25 26 27 29 30 31 29 29 29 29 29 29 29 26 24 23 23 22 20 17 20 22 20 20 19 19 18 18 18 17 18 19 19 18 17 16 16 15 14 13 12 12 11 10 9 9
11 8 8 8 9 7 4 4 4 1 18 19 20 12 19 12 9 17 24 27 27 27 25 23 24 21 24 21 21 22 22 22 23 23 23 21 21 21 22 23 25 26 27 27 28 29 29 28 27 28 29 29 29 27 25 23 22 22 19 18 22 20 18 17 18 19 18 17 17 17 17 17 17 17 16 15 15 15 13 12 11 10 10 9 9 9
9 3 0 4 3 0 0 -1 2 17 16 20 15 10 19 20 21 27 25 21 24 23 21 23 21 20 21 19 19 19 20 20 19 19 19 19 19 19 20 21 22 23 24 25 25 26 29 28 28 29 30 30 30 29 27 25 25 25 23 23 23 19 17 17 17 18 18 17 17 17 17 16 16 16 15 15 15 14 12 11 10 9 9 8 8 8
10 6 6 7 15 13 8 11 14 13 10 6 13 17 23 27 29 27 24 23 21 19 22 20 18 18 19 20 19 19 18 17 17 17 17 17 17 17 18 18 19 19 19 21 21 26 27 26 28 29 29 30 30 30 27 25 25 25 25 26 22 21 19 19 18 18 17 17 17 17 16 16 15 15 14 14 13 12 11 9 9 8 8 8 8 7
12 10 11 10 11 11 12 12 12 8 4 4 5 20 28 29 26 24 21 19 19 19 19 19 17 18 18 19 19 18 17 16 15 15 15 15 14 15 16 16 16 16 18 20 21 22 24 25 27 28 28 29 30 30 29 26 25 24 26 26 22 22 20 19 18 18 18 17 17 16 15 15 14 14 13 13 13 12 11 9 8 8 8 7 7 7
12 13 10 11 9 6 3 6 5 4 3 4 7 18 24 24 24 22 18 18 16 17 16 17 18 18 19 18 18 16 15 15 14 13 12 12 12 12 12 13 14 14 16 17 17 21 21 22 22 22 22 22 24 28 29 29 27 26 26 26 24 22 21 19 19 18 18 17 16 15 15 14 13 12 12 12 12 11 10 9 9 9 8 7 7 6
9 12 9 9 8 8 6 6 5 6 6 8 9 12 20 20 17 18 17 15 14 13 14 15 16 15 15 14 13 13 13 12 11 10 9 9 9 10 10 11 12 13 14 14 14 18 17 18 17 18 19 19 19 23 26 28 30 29 27 26 25 21 20 19 19 19 18 17 15 14 14 14 11 11 11 11 11 10 9 9 9 8 7 7 7 6
10 13 6 8 7 7 8 9 9 8 9 10 10 14 17 15 14 13 12 12 12 11 12 13 12 12 11 11 11 11 11 9 8 8 8 8 8 8 8 9 10 9 11 13 14 14 14 14 17 17 16 16 17 18 21 26 30 30 29 27 24 20 19 19 18 18 18 16 14 13 12 12 11 11 11 10 10 10 10 9 8 8 9 10 8 8
12 10 10 10 8 8 7 5 6 4 5 5 6 14 14 13 13 12 12 11 11 11 12 11 10 9 9 9 9 9 9 7 6 6 6 6 6 7 7 6 7 9 9 9 11 11 12 13 13 14 13 14 16 18 22 22 22 24 27 27 23 20 19 19 18 17 17 15 14 13 11 11 10 10 10 10 9 9 9 10 13 11 9 8 13 14
10 9 8 8 7 6 6 7 9 8 7 7 8 14 14 12 11 11 11 10 9 9 9 7 6 6 7 8 8 8 7 5 4 4 4 5 5 5 5 5 6 7 6 7 8 9 9 9 10 10 11 13 16 18 18 17 17 18 19 23 23 20 19 19 18 16 16 14 13 12 11 11 10 9 9 9 8 8 7 7 10 15 14 13 13 14